[[{"header":{"parameterUnit":"m.s-1","parameterCategory":1,"la1":30.2991,"la2":30.254,"lo1":-89.0895,"lo2":-89.0444,"dy":0.0017,"dx":0.0017,"nx":28,"ny":28,"refTime":"2025-11-28T03:00:00:Z","depth":0,"parameterNumber":2,"parameterNumberName":"U-component_of_WINDS"},"data":[0,0,0,0,0,0,0,0,0,0,0,0,0,0,0,0,0,0,0,0,0,0,0,0,0,0,0,0,0,0,0,0,0,0,0,0,0,0,0,0,0,0,0,0,0,0,0,0,0,0,0,0,0,0,0,0,0,0,-6.5144,-6.5146,0,-6.5302,-6.5303,-6.5305,-6.5269,-6.5266,-6.5263,-6.526,-6.5421,-6.5427,-6.5434,0,0,0,0,0,0,0,0,0,0,0,0,0,-6.481,-6.4816,-6.5144,-6.5146,-6.5148,-6.5301,-6.5304,-6.5306,-6.5269,-6.5266,-6.5262,-6.5259,-6.5418,-6.5427,-6.5435,0,0,0,0,0,0,0,0,0,0,0,0,0,-6.496,-6.4818,-6.5143,-6.5148,-6.515,-6.5301,-6.5304,-6.5306,-6.527,-6.5266,-6.5261,-6.5257,-6.5416,-6.5426,-6.5436,-6.5592,0,0,-6.5469,-6.5473,0,0,0,0,0,0,0,0,-6.4952,-6.4972,-6.5146,-6.5148,-6.5151,-6.5261,-6.5245,-6.5402,-6.5271,-6.5225,-6.526,-6.5255,-6.5371,-6.5385,-6.5424,-6.5599,-6.5606,-6.547,-6.5476,-6.5481,-6.5484,0,0,0,0,0,0,0,-6.4941,-6.4965,-6.5206,-6.5148,-6.5151,-6.5142,-6.5158,-6.5274,-6.5321,-6.5228,-6.5226,-6.5245,-6.5372,-6.5414,-6.5428,-6.5608,-6.5469,-6.5479,-6.5485,-6.5489,-6.5916,-6.5921,0,0,0,0,0,0,-6.4929,-6.4957,-6.5201,-6.5211,-6.5038,-6.5152,-6.517,-6.523,-6.532,-6.5329,-6.5249,-6.5243,-6.5398,-6.5416,-6.5433,-6.5618,-6.5481,-6.549,-6.5497,-6.5911,-6.5917,-6.5922,0,0,0,0,0,0,-6.4922,-6.4951,-6.5195,-6.5083,-6.5114,-6.5162,-6.523,-6.5236,-6.5278,-6.5335,-6.5343,-6.5284,-6.5396,-6.5419,-6.5552,-6.5623,-6.5495,-6.5505,-6.5905,-6.5913,-6.592,-6.5991,0,0,0,0,0,0,-6.4912,-6.4949,-6.5008,-6.5085,-6.512,-6.5311,-6.5235,-6.5242,-6.5297,-6.529,-6.537,-6.5379,-6.5394,-6.5536,-6.5563,-6.5636,-6.5513,-6.5899,-6.5908,-6.5917,-6.5982,-6.6,-6.6015,0,0,0,0,0,-6.4901,-6.5023,-6.5012,-6.5041,-6.5196,-6.5315,-6.5335,-6.535,-6.5303,-6.5362,-6.5399,-6.5377,-6.5613,-6.555,-6.558,-6.5657,-6.5894,-6.5906,-6.5917,-6.5975,-6.5996,-6.6015,0,0,0,0,0,0,-6.4953,-6.5033,-6.5021,-6.5172,-6.5237,-6.5309,-6.5385,-6.5372,-6.5452,-6.5443,-6.5457,-6.5476,-6.5611,-6.5648,-6.5578,-6.5811,-6.5746,-6.5764,-6.5781,-6.5802,-6.5818,-6.5804,-6.5522,0,0,0,0,0,-6.4982,-6.5073,-6.5138,-6.5265,-6.5298,-6.5336,-6.5389,-6.5395,-6.5462,-6.549,-6.5536,-6.5603,-6.5691,-6.5749,-6.5835,-6.5989,-6.6004,-6.6057,-6.6073,-6.6086,-6.61,-6.6181,-6.6204,-6.5959,-6.5959,-6.5959,0,0,-6.5043,-6.5098,-6.5154,-6.5276,-6.5327,-6.542,-6.5359,-6.5461,-6.5529,-6.5505,-6.5632,-6.567,-6.5745,-6.5889,-6.5954,-6.5924,-6.6172,-6.61,-6.611,-6.6117,-6.6195,-6.6218,-6.6239,-6.5967,-6.5965,-6.5964,0,0,-6.52,-6.5252,-6.5362,-6.5414,-6.5493,-6.5517,-6.5544,-6.5618,-6.5641,-6.577,-6.5753,-6.5835,-6.5989,-6.6042,-6.6089,-6.6267,-6.6248,-6.6295,-6.6378,-6.6458,-6.6477,-6.6494,-6.6554,-6.6576,-6.631,-6.631,-6.631,0,-6.5265,-6.5404,-6.542,-6.5522,-6.5575,-6.5559,-6.5668,-6.5719,-6.5821,-6.5858,-6.5823,-6.6014,-6.6064,-6.6218,-6.6261,-6.6302,-6.633,-6.6284,-6.6473,-6.6491,-6.6507,-6.6564,-6.6587,-6.6315,-6.6314,-6.6313,-6.6313,0,-6.5479,-6.5576,-6.5655,-6.5753,-6.5816,-6.5922,-6.5952,-6.6014,-6.6015,-6.6043,-6.6174,-6.6234,-6.6329,-6.6367,-6.637,-6.6522,-6.65,-6.647,-6.6404,-6.6535,-6.6588,-6.6611,-6.6321,-6.632,-6.6318,-6.6317,0,0,-6.567,-6.5776,-6.5804,-6.5848,-6.5933,-6.6008,-6.6114,-6.6207,-6.6258,-6.633,-6.6416,-6.6547,-6.6519,-6.6572,-6.6581,-6.6651,-6.6784,-6.6612,-6.6614,-6.6638,-6.6952,-6.6971,-6.6997,-6.6774,-6.6779,-6.6782,-6.6944,0,-6.5832,-6.6016,-6.6033,-6.6198,-6.6286,-6.6272,-6.6363,-6.6425,-6.6455,-6.6534,-6.6567,-6.6657,-6.6615,-6.6647,-6.6717,-6.6753,-6.6847,-6.6743,-6.6852,-6.6856,-6.6829,-6.7025,-6.7046,-6.7197,-6.6966,-6.697,-6.6972,0,-6.6044,-6.6121,-6.6294,-6.6366,-6.6403,-6.6485,-6.6571,-6.6648,-6.6717,-6.6734,-6.6794,-6.6793,-6.69,-6.6835,-6.6981,-6.6909,-6.6956,-6.6981,-6.6987,-6.6994,-6.6919,-6.7034,-6.7245,-6.7266,-6.7006,-6.7004,-6.7001,0,-6.6161,-6.6308,-6.643,-6.6469,-6.6556,-6.6613,-6.6653,-6.6718,-6.6773,-6.6849,-6.6884,-6.6972,-6.7019,-6.7087,-6.7109,-6.706,-6.7254,-6.7191,-6.7268,-6.7267,-6.7306,-6.7302,-6.7523,-6.7344,-6.7343,-6.7343,-6.7342,0,-6.6336,-6.6442,-6.6483,-6.6558,-6.6676,-6.6695,-6.6811,-6.6847,-6.6906,-6.6986,-6.6982,-6.7057,-6.7084,-6.7165,-6.7183,-6.73,-6.7322,-6.7337,-6.734,-6.7335,-6.7332,-6.7362,-6.7351,-6.7349,-6.7348,-6.7346,-6.7345,0,-6.6485,-6.6518,-6.6649,-6.6721,-6.6742,-6.6825,-6.6887,-6.6958,-6.6987,-6.709,-6.7115,-6.716,-6.7254,-6.7285,-6.7399,-6.7411,-6.7546,-6.7542,-6.7522,-6.7521,-6.7595,-6.7586,-6.784,-6.7873,-6.7675,-6.7677,-6.7679,0,-6.6593,-6.6673,-6.6754,-6.6808,-6.6849,-6.6936,-6.6991,-6.7014,-6.7072,-6.7157,-6.7218,-6.7312,-6.7387,-6.7538,-6.7581,-6.7668,-6.7663,-6.7746,-6.7676,-6.7668,-6.7659,-6.7652,-6.7659,-6.7758,-6.776,-6.7761,-6.7763,0,-6.6779,-6.6791,-6.6871,-6.6957,-6.7024,-6.7093,-6.7159,-6.7203,-6.7236,-6.7301,-6.7397,-6.7455,-6.7572,-6.7663,-6.7752,-6.7792,-6.7782,-6.7785,-6.7807,-6.78,-6.7784,-6.7789,-6.7553,-6.7778,-6.7777,-6.7776,-6.7775,-6.7774,-6.6908,-6.6978,-6.7045,-6.7134,-6.7187,-6.7249,-6.7318,-6.7356,-6.7437,-6.7532,-6.7542,-6.7644,-6.7712,-6.7829,-6.7874,-6.7954,-6.793,-6.7963,-6.7971,-6.7977,-6.7981,-6.7775,-6.7971,-6.7971,-6.7971,-6.797,-6.797,0,-6.709,-6.7133,-6.7215,-6.7307,-6.7377,-6.7364,-6.7437,-6.7496,-6.7586,-6.765,-6.7724,-6.7833,-6.7922,-6.7973,-6.8062,-6.8116,-6.8114,-6.8138,-6.8132,-6.8141,-6.7999,-6.7969,-6.8139,-6.8139,-6.8139,-6.8139,-6.8138,-6.8138,-6.7193,-6.7309,-6.733,-6.7472,-6.7514,-6.7614,-6.7656,-6.7713,-6.7764,-6.7886,-6.7959,-6.7992,-6.805,-6.8143,-6.8224,-6.8237,-6.8268,-6.8294,-6.8304,-6.8169,-6.8151,-6.8135,-6.8106,-6.8302,-6.8302,-6.8438,-6.844,-6.8441]},{"header":{"parameterUnit":"m.s-1","parameterCategory":1,"la1":30.2991,"la2":30.254,"lo1":-89.0895,"lo2":-89.0444,"dy":0.0017,"dx":0.0017,"nx":28,"ny":28,"refTime":"2025-11-28T03:00:00:Z","depth":0,"parameterNumber":3,"parameterNumberName":"V-component_of_WINDS"},"data":[0,0,0,0,0,0,0,0,0,0,0,0,0,0,0,0,0,0,0,0,0,0,0,0,0,0,0,0,0,0,0,0,0,0,0,0,0,0,0,0,0,0,0,0,0,0,0,0,0,0,0,0,0,0,0,0,0,0,4.6942,4.6942,0,4.6938,4.6937,4.6937,4.6774,4.677,4.6766,4.6762,4.6758,4.6762,4.6765,0,0,0,0,0,0,0,0,0,0,0,0,0,4.681,4.6813,4.6942,4.6942,4.6942,4.6938,4.6937,4.6937,4.6775,4.677,4.6765,4.676,4.6757,4.6761,4.6766,0,0,0,0,0,0,0,0,0,0,0,0,0,4.6843,4.6814,4.6942,4.686,4.6853,4.6938,4.6937,4.6937,4.6776,4.677,4.6764,4.6758,4.6755,4.6761,4.6766,4.6929,0,0,4.6784,4.6786,0,0,0,0,0,0,0,0,4.6841,4.6848,4.6872,4.6866,4.6858,4.685,4.6889,4.6935,4.6778,4.6805,4.6762,4.6755,4.6794,4.6796,4.6809,4.6929,4.6928,4.6784,4.6788,4.679,4.6792,0,0,0,0,0,0,0,4.6839,4.6847,4.694,4.6873,4.6864,4.6824,4.6822,4.6897,4.6835,4.6803,4.6791,4.6792,4.6789,4.6804,4.6808,4.6928,4.6784,4.6789,4.6793,4.6795,4.7179,4.7185,0,0,0,0,0,0,4.6848,4.6846,4.694,4.694,4.6834,4.6832,4.6829,4.6859,4.6834,4.6824,4.6798,4.6785,4.6797,4.6801,4.6807,4.6993,4.679,4.6796,4.6799,4.7172,4.718,4.7188,0,0,0,0,0,0,4.6846,4.6858,4.694,4.689,4.6897,4.6841,4.6876,4.6862,4.6877,4.683,4.6818,4.6825,4.6792,4.6799,4.6899,4.6991,4.6798,4.6804,4.7164,4.7175,4.7184,4.7368,0,0,0,0,0,0,4.6843,4.6858,4.6919,4.6893,4.6901,4.7033,4.6881,4.6867,4.6887,4.687,4.6852,4.6843,4.6788,4.6891,4.6905,4.6995,4.6808,4.7156,4.7169,4.7181,4.7354,4.7383,4.7409,0,0,0,0,0,4.6839,4.6972,4.6923,4.6935,4.6976,4.7039,4.7043,4.6977,4.6896,4.6956,4.6926,4.6844,4.698,4.6903,4.6917,4.701,4.7149,4.7165,4.718,4.7341,4.7377,4.7408,0,0,0,0,0,0,4.7011,4.6967,4.6912,4.7041,4.7045,4.7011,4.7085,4.7018,4.7045,4.7027,4.6944,4.6941,4.7054,4.7043,4.6958,4.7165,4.705,4.7069,4.7168,4.7202,4.7229,4.7228,4.6813,0,0,0,0,0,4.7064,4.7119,4.7077,4.7195,4.72,4.7143,4.7168,4.7116,4.7117,4.7118,4.7095,4.7099,4.7141,4.7172,4.7209,4.7352,4.7345,4.7423,4.7451,4.7474,4.749,4.7563,4.7596,4.7237,4.7237,4.7237,0,0,4.7174,4.7156,4.7196,4.7229,4.7226,4.7284,4.7145,4.7213,4.7255,4.7128,4.722,4.7204,4.7203,4.7325,4.7378,4.7319,4.7588,4.7493,4.7512,4.7515,4.7582,4.7616,4.7646,4.7248,4.7246,4.7244,0,0,4.7402,4.7396,4.7492,4.7492,4.7489,4.745,4.7474,4.7451,4.7435,4.7526,4.7432,4.7481,4.7558,4.756,4.7571,4.7803,4.7727,4.7818,4.796,4.8032,4.806,4.8085,4.8165,4.8195,4.7834,4.7835,4.7835,0,4.7538,4.7622,4.755,4.7623,4.764,4.7528,4.7624,4.7628,4.7638,4.7652,4.7586,4.7679,4.767,4.779,4.7847,4.7861,4.7884,4.7817,4.8062,4.8086,4.8108,4.8183,4.8214,4.7846,4.7844,4.7843,4.7842,0,4.7789,4.7848,4.7926,4.7938,4.7963,4.8049,4.7988,4.8024,4.7971,4.7939,4.8034,4.802,4.8051,4.8077,4.8026,4.819,4.8153,4.8077,4.7959,4.8154,4.8223,4.8252,4.7861,4.7857,4.7854,4.7851,0,0,4.8123,4.8094,4.8123,4.8126,4.8116,4.816,4.824,4.8271,4.8301,4.8313,4.8376,4.8444,4.8373,4.8386,4.8335,4.8399,4.858,4.8314,4.8312,4.8361,4.8757,4.8812,4.8846,4.8531,4.8537,4.8541,4.8756,0,4.8341,4.8474,4.8412,4.8552,4.8605,4.8501,4.857,4.8571,4.8545,4.8586,4.8557,4.8605,4.8509,4.8516,4.8575,4.8545,4.8657,4.853,4.8588,4.8591,4.8588,4.8883,4.8941,4.9145,4.8783,4.8787,4.879,0,4.8613,4.8635,4.8781,4.8759,4.8779,4.8842,4.8865,4.8906,4.8905,4.8881,4.8897,4.8831,4.8907,4.8793,4.8896,4.8811,4.8832,4.8821,4.8827,4.8827,4.87,4.8888,4.9208,4.9238,4.8833,4.8829,4.8826,0,4.8838,4.8905,4.8999,4.9006,4.8984,4.9031,4.9024,4.9017,4.9039,4.906,4.9073,4.9103,4.9119,4.9143,4.9087,4.901,4.9197,4.9079,4.9178,4.918,4.9219,4.9217,4.9544,4.9239,4.9239,4.9238,4.9238,0,4.9086,4.9179,4.91,4.9158,4.9258,4.9187,4.9288,4.927,4.9265,4.9317,4.9231,4.9282,4.9206,4.925,4.9207,4.9298,4.9306,4.9288,4.9275,4.9294,4.9296,4.9304,4.9287,4.9246,4.9245,4.9243,4.9242,0,4.9353,4.9304,4.94,4.9372,4.9367,4.9442,4.9418,4.947,4.9439,4.9506,4.9518,4.9468,4.9515,4.9463,4.9506,4.9477,4.9599,4.9567,4.9599,4.9588,4.9689,4.9679,5.003,5.0072,4.9744,4.9747,4.975,0,4.9512,4.9581,4.956,4.9589,4.9587,4.9635,4.9657,4.959,4.9617,4.9621,4.9673,4.9713,4.9741,4.9821,4.9789,4.9821,4.9787,4.9908,4.9791,4.9808,4.9785,4.978,4.9786,4.9931,4.9935,4.9938,4.994,0,4.98,4.9773,4.9808,4.9835,4.9864,4.9882,4.9894,4.9923,4.9853,4.9887,4.9934,4.9956,5.0,5.004,5.0064,5.0056,4.9987,4.9978,5.0002,5.002,5.0035,5.0025,4.966,4.9969,4.9966,4.9964,4.9963,4.9962,5.0015,5.0071,5.0064,5.0106,5.0108,5.0121,5.0168,5.0143,5.0181,5.0211,5.017,5.0228,5.0225,5.0249,5.025,5.0294,5.0242,5.0278,5.0287,5.0296,5.0309,5.0031,5.0299,5.0298,5.0297,5.0296,5.0296,0,5.0295,5.0286,5.0326,5.0345,5.0378,5.0311,5.032,5.0352,5.0404,5.0408,5.0437,5.0491,5.0529,5.0501,5.0533,5.0574,5.0543,5.0585,5.0579,5.0578,5.0355,5.0329,5.0609,5.0609,5.0609,5.0609,5.0609,5.0609,5.0445,5.0534,5.0506,5.0595,5.0586,5.0641,5.0652,5.0664,5.0666,5.0729,5.0761,5.0742,5.0733,5.0764,5.0796,5.0787,5.0802,5.0854,5.0833,5.0625,5.0594,5.0564,5.054,5.0859,5.0859,5.1052,5.1054,5.1055]}]]